Flag for U.S.A. Weather past 2 weeks in Binghamton, New York, U.S.A.

61 °F

Scattered clouds.

Feels Like: 61 °F
Forecast: 51 / 67 °F
Wind: 5 mph from West

Location: Binghamton Regional Airport

Current Time: Oct 8, 2015 at 5:03:12 PM

Latest Report: Oct 8, 2015 at 3:53 PM

Visibility: 10 mi

Pressure: 30.09 "Hg

Humidity: 60%

Dew point: 47 °F

Location of BinghamtonLocation

Historic Weather in Binghamton — Graph


Binghamton temperature yesterday

Maximum temperature yesterday: 64 °F (at 2:53 PM)
Minimum temperature yesterday: 51 °F (at 5:53 AM)
Average temperature yesterday: 56 °F

Past Weeks' High & Low Weather Summary

High75 °F (Sep 24, 3:53 PM)100% (Sep 29, 8:53 PM)30.46 "Hg (Sep 29, 8:53 PM)
Low40 °F (Oct 2, 5:53 AM)30% (Sep 27, 3:53 PM)29.73 "Hg (Sep 30, 5:53 AM)
Average56 °F79%30.21 "Hg
* Reported Sep 23 3:53 PM — Oct 8 3:53 PM, Binghamton, Weather by CustomWeather, © 2015

Note: Actual official high and low records may vary slightly from our data, if they occured in-between our weather recording intervals... More about our weather records


Binghamton weather history for previous 24 hours

Time TempWeatherWind HumidityBarometerVisibility
3:53 PM
Thu, Oct 8
61 °FScattered clouds.5 mph60%30.09 "Hg10 mi
2:53 PM60 °FPassing clouds.6 mph65%30.11 "Hg10 mi
1:53 PM58 °FSunny.5 mph72%30.13 "Hg10 mi
1:02 PM58 °FPartly sunny.6 mph75%30.15 "Hg10 mi
12:53 PM56 °FPartly sunny.6 mph77%30.16 "Hg10 mi
11:53 AM53 °FMore clouds than sun.7 mph89%30.16 "Hg8 mi
10:53 AM50 °FFog.3 mph100%30.18 "Hg0 mi
9:53 AM50 °FFog.No wind100%30.18 "Hg0 mi
8:53 AM49 °FFog.5 mph100%30.16 "Hg0 mi
7:53 AM49 °FFog.5 mph100%30.15 "Hg0 mi
6:53 AM50 °FFog.5 mph100%30.12 "Hg0 mi
5:53 AM48 °FFog.No wind96%30.11 "Hg0 mi
5:03 AM50 °FFog.5 mph100%30.10 "Hg0 mi
4:53 AM50 °FFog.5 mph100%30.10 "Hg0 mi
3:53 AM51 °FFog.3 mph100%30.09 "Hg0 mi
3:01 AM52 °FFog.3 mph97%30.09 "Hg2 mi
1:53 AM52 °FFog.5 mph100%30.10 "Hg5 mi
12:53 AM54 °FFog.5 mph97%30.09 "Hg6 mi
11:53 PM
Wed, Oct 7
55 °FOvercast.5 mph93%30.09 "Hg9 mi
11:04 PM55 °FLight rain. Fog.6 mph93%30.09 "Hg6 mi
10:53 PM56 °FLight rain. Mostly cloudy.7 mph90%30.09 "Hg9 mi
9:53 PM57 °FLight rain. Mostly cloudy.6 mph78%30.08 "Hg10 mi
8:53 PM58 °FPassing clouds.No wind72%30.06 "Hg10 mi
7:53 PM59 °FPartly cloudy.No wind69%30.05 "Hg10 mi
6:53 PM60 °FPassing clouds.3 mph67%30.04 "Hg10 mi
5:53 PM62 °FScattered clouds.7 mph62%30.03 "Hg10 mi
Weather by CustomWeather, © 2015

See weather overviewHow to use our weather pages